User: anonymous
Location: Long Point Provincial Park
(42.5794°N, 80.4103°W)
Time: 07:29:29
(UTC-04:00)
Language:

Iridium 19 - Orbit

View from above orbital plane
View from above orbital plane
View from above satellite
View from above satellite

Ground track
Ground track

The orbit data is extracted from the following two-line orbital elements,

1 24965U 97056A   14211.10625761  .00000019  00000-0 -22466-6 0  8761
2 24965 086.3941 038.8783 0002079 112.8476 247.2940 14.34215677881615
Epoch (UTC): 30 July 2014 02:33:00
Eccentricity: 0.0002079
inclination: 86.3941°
perigee height: 776 km
apogee height: 779 km
right ascension of ascending node: 38.8783°
argument of perigee: 112.8476°
revolutions per day: 14.34215677
mean anomaly at epoch: 247.2940°
orbit number at epoch: 88161

The dashed part of the orbit path shows where the satellite is in the earth's shadow,  

DLR